Regional Weather Roundup
Issued by NWS Spokane, WA

Home | Current Version | Previous Version | Text Only | Print | Product List | Glossary On
Versions: 1 2 3 4 5 6 7 8 9 10 11 12 13 14 15 16 17 18 19 20 21 22 23 24 25 26 27 28 29 30 31 32 33 34 35 36 37 38 39 40 41 42 43 44 45 46 47 48 49 50
917
NZUS01 KOTX 042110
RWROTX
EASTERN WASHINGTON/NORTHERN IDAHO ROUNDUP
NATIONAL WEATHER SERVICE, SPOKANE WA
200 PM PDT WED MAY 04 2016

Note: "fair" indicated few or no clouds below 12,000 feet with no
significant weather and/or obstructions to visibility.

...NORTHEAST WASHINGTON AND NORTHERN IDAHO PANHANDLE...

CITY           SKY/WX    TMP DP  RH WIND       PRES   REMARKS
SPOKANE INTL   PTSUNNY   75  44  33 CALM      29.93F
SPOKANE DOWNTO MOSUNNY   76  47  35 CALM      29.92F
COEUR D ALENE  SUNNY     75  48  38 W5        29.90F
DEER PARK      MOSUNNY   73  45  36 S5        29.94F
SANDPOINT      SUNNY     73  43  33 W6        29.92F

...SOUTHEAST WASHINGTON AND SOUTHERN IDAHO PANHANDLE...

CITY           SKY/WX    TMP DP  RH WIND       PRES   REMARKS
WALLA WALLA    CLOUDY    79  51  37 VRB7      29.87F
PULLMAN/MOSCOW MOSUNNY   75  46  35 VRB5      29.94F
LEWISTON       MOSUNNY   79  49  34 N5        29.88F
LOWELL           N/A     80  45  28 S7        29.82F

...COLUMBIA BASIN...

CITY           SKY/WX    TMP DP  RH WIND       PRES   REMARKS
EPHRATA        LGT RAIN  71  49  45 SW12      29.91S
MOSES LAKE     PTSUNNY   74  49  41 S8        29.92S
TRI CITIES     CLOUDY    77  52  41 NW5       29.88F
HERMISTON      CLOUDY    73  50  44 NW7       29.88F
PENDLETON      CLOUDY    71  49  45 NW13      29.90S

...EAST SLOPES CASCADES...

CITY           SKY/WX    TMP DP  RH WIND       PRES   REMARKS
THE DALLES     CLOUDY    73  51  46 NW5       29.87F
YAKIMA         CLOUDY    73  49  42 SE7       29.91S
ELLENSBURG     LGT RAIN  72  49  44 SE7       29.91F
STAMPEDE PASS  CLOUDY    46  44  93 SW5       30.02R
WENATCHEE      PTSUNNY   74  47  38 E6        29.88F
OMAK           MOSUNNY   79  43  27 S12G20    29.87F

...SOUTHERN BRITISH COLUMBIA...

CITY           SKY/WX    TMP DP  RH WIND       PRES   REMARKS
PENTICTON      PTSUNNY   72  48  43 N15       29.86F
CASTLEGAR      PTSUNNY   79  43  27 S10       29.87F
CRANBROOK      PTSUNNY   79  37  22 SW15G23   29.88F

...WESTERN MONTANA...

CITY           SKY/WX    TMP DP  RH WIND       PRES   REMARKS
MISSOULA       PTSUNNY   73  45  36 NW5       29.96F

...NEIGHBORING CITIES...

CITY           SKY/WX    TMP DP  RH WIND       PRES   REMARKS
SEATTLE        CLOUDY    55  47  74 N12       30.05F
CALGARY        PTSUNNY   77  30  18 VRB10G23  29.83F



USA.gov is the U.S. government's official web portal to all federal, state and local government web resources and services.